Terug naar catalogus

COSMOS 1510

ActiefMilitairLEO
NORAD 14521·PAYLOAD·🇷🇺 Russia

Gelanceerd Nov 24, 1983 vanaf Plesetsk Cosmodrome

Loading…

Volgende Passages (komende 24 uur)

TLE

VersSource: Space-Track

Epoch: Sep 14, 2026, 06:43 UTC

1 14521U 83115A   26257.28008000 -.00000004  00000-0  98520-4 0  9994
2 14521  73.6181 191.4270 0027932 204.9162 308.9863 12.41203980940091

Volg COSMOS 1510 in realtime met AllMySat

Download on the App Store